Regional Weather Roundup
Issued by NWS

Home | Current Version | Previous Version | Graphics & Text | Print | Product List | Glossary On
Versions: 1 2 3 4 5 6 7 8 9 10 11 12 13 14 15 16 17 18 19 20 21 22 23 24 25 26 27 28 29 30 31 32 33 34 35 36 37 38 39 40 41 42 43 44 45 46 47 48 49 50
000
ASUS45 KBOU 010310
RWRCO

WEATHER ROUNDUP FOR COLORADO
NATIONAL WEATHER SERVICE DENVER/BOULDER CO
900 PM MDT FRI JUL 31 2015

NOTE: "FAIR" INDICATES FEW OR NO CLOUDS BELOW 12000 FEET WITH NO
SIGNIFICANT WEATHER AND/OR OBSTRUCTIONS TO VISIBILITY.

COZ001>005-013-030-031-010400-
...NORTHWEST COLORADO...

CITY           SKY/WX    TMP DP  RH WIND       PRES   REMARKS
CRAIG          CLEAR     66  31  27 S3        30.22R
HAYDEN         CLEAR     73  28  19 SW7       30.25R
MEEKER         PTCLDY    69  37  30 SW3       30.24R
MOUNT WERNER   NOT AVBL
STEAMBOAT SPGS CLEAR     68  39  34 CALM      30.28R
WALDEN         MOCLDY    66  37  34 E5        30.39R
$$

COZ006>008-011-010400-
...WEST CENTRAL VALLEYS...

CITY           SKY/WX    TMP DP  RH WIND       PRES   REMARKS
GRAND JUNCTION PTCLDY    81  38  21 E9        30.10R
MONTROSE       CLOUDY    76  46  34 SE13      30.26R
EAGLE          PTCLDY    81  37  21 SW9       30.27R
RIFLE          PTCLDY    81  41  24 NW8       30.16R
DELTA          CLOUDY    81  46  29 SE5       30.20R
NUCLA          CLOUDY    73  45  35 E8        30.31R
$$

COZ017>023-064>068-010400-
...SOUTHWEST COLORADO...

CITY           SKY/WX    TMP DP  RH WIND       PRES   REMARKS
DURANGO        CLOUDY    65  54  67 CALM      30.36R
CORTEZ         MOCLDY    65  63  93 S5        30.29R
PAGOSA SPRINGS CLOUDY    63  55  74 CALM      30.45R
TELLURIDE      CLOUDY    55  53  92 CALM      30.56R
WOLF CREEK PAS NOT AVBL
$$

COZ009-010-012-014-032>034-037-058>063-010400-
...CENTRAL COLORADO...

CITY           SKY/WX    TMP DP  RH WIND       PRES   REMARKS
ASPEN          PTCLDY    60  45  57 SW10      30.38R
BUENA VISTA    MOCLDY    63  49  61 E7        30.46R
COPPER MTN     MOCLDY    55  37  50 S16       30.74R
BERTHOUD PASS  FAIR      45  34  65 E20       30.79R
COTTONWOOD PAS MOCLDY    59  46  63 CALM      30.60R
GUNNISON       MOCLDY    66  46  48 S6        30.44R
KREMMLING      MOCLDY    72  37  28 E9        30.35R
LEADVILLE      MOCLDY    56  43  61 S12       30.57R
MONARCH PASS   MOCLDY    48  41  76 SW6       30.84S
SALIDA         NOT AVBL
SUNLIGHT       PTCLDY    59  36  41 CALM      30.65R
WILKERSON PASS CLOUDY    48  41  76 S12G18    30.73R
$$

COZ069>075-010400-
...SAN LUIS VALLEY/SANGRE DE CRISTO MOUNTAINS...

CITY           SKY/WX    TMP DP  RH WIND       PRES   REMARKS
ALAMOSA        CLOUDY    60  51  72 NE5       30.44R
LA VETA PASS   CLOUDY    52  43  71 MISG      30.63R
SAGUACHE       CLOUDY    61  54  77 CALM      30.48S
$$

COZ035-036-038>040-010400-
...NORTHERN COLORADO FRONT RANGE...

CITY           SKY/WX    TMP DP  RH WIND       PRES   REMARKS
DENVER INTL AP PTCLDY    76  50  40 S14       30.24R
DMNS CITY PARK   N/A     76  50  40 SE10      30.24R
AURORA         PTCLDY    73  54  51 S7        30.27R
FRONT RANGE AP PTCLDY    77  50  38 S5        30.25S
ERIE MUNI ARPT CLEAR     77  48  35 S6        30.21R
BOULDER MUN AP CLEAR     77  50  38 S5        30.21S
CENTENNIAL     PTCLDY    70  53  54 S6        30.28R
BROOMFIELD     PTCLDY    75  50  41 S3        30.25S
FORT COLLINS   PTCLDY    79  50  36 SE6       30.19R
LONGMONT       CLEAR     75  53  46 W3        30.22R
$$

COZ041-046-047-076>085-087-088-010400-
...PIKES PEAK/PALMER DIVIDE AND SOUTHERN FOOTHILLS...

CITY           SKY/WX    TMP DP  RH WIND       PRES   REMARKS
COLO. SPRINGS  MOCLDY    69  51  52 SW12      30.34R
A. F. ACADEMY  MOCLDY    69  49  48 SE9       30.35R
ELLICOTT       MOCLDY   N/A N/A N/A W6        30.33R
FALCON         MOCLDY    65  51  58 SW9       30.40R
FORT CARSON    CLOUDY    67  54  62 W10       30.30S
LIMON          PTCLDY    68  54  60 SE7       30.28R
MONUMENT HILL  PTCLDY    59  52  77 S6        30.39S
TRINIDAD       MOCLDY    73  57  57 E5        30.26R
$$

COZ042>045-048>051-090-091-010400-
...NORTHEAST COLORADO...

CITY           SKY/WX    TMP DP  RH WIND       PRES   REMARKS
GREELEY ARPT   CLEAR     73  54  49 E3        30.19R
AKRON          CLEAR     77  53  43 S13       30.21R
BURLINGTON     CLEAR     72  58  61 S8        30.21R
WRAY           PTCLDY    78  58  49 S6        30.15R
STERLING       CLEAR     73  54  49 S3        30.14S
HOLYOKE        NOT AVBL
FORT MORGAN    CLEAR     74  50  42 SE9       30.19R
$$

COZ086-089-092>099-010400-
...SOUTHEAST COLORADO...

CITY           SKY/WX    TMP DP  RH WIND       PRES   REMARKS
PUEBLO         CLOUDY    77  57  50 NW12      30.23R
LA JUNTA       PTCLDY    79  61  53 E12       30.19R
LAMAR          CLEAR     74  59  59 SE8       30.17R
SPRINGFIELD      N/A     71  63  75 SE9       30.22R
$$



USA.gov is the U.S. government's official web portal to all federal, state and local government web resources and services.